Index,Value,Type,Time
0 ,-0.200 ,DCV mV,17:26:20:186
1 ,-0.100 ,DCV mV,17:26:20:779
2 ,-0.200 ,DCV mV,17:26:21:528
3 ,-0.200 ,DCV mV,17:26:22:292
4 ,-0.100 ,DCV mV,17:26:23:056
5 ,-0.500 ,DCV mV,17:26:23:821
6 ,-0.300 ,DCV mV,17:26:24:585
7 ,0.000 ,DCV mV,17:26:25:350
8 ,-0.400 ,DCV mV,17:26:26:114
9 ,-0.800 ,DCV mV,17:26:26:863
10 ,-0.300 ,DCV mV,17:26:27:627
11 ,-0.300 ,DCV mV,17:26:28:392
12 ,0.100 ,DCV mV,17:26:29:156
13 ,0.000 ,DCV mV,17:26:29:920
14 ,0.000 ,DCV mV,17:26:30:685
15 ,0.200 ,DCV mV,17:26:31:449
16 ,0.300 ,DCV mV,17:26:32:214
17 ,0.300 ,DCV mV,17:26:32:978
18 ,0.300 ,DCV mV,17:26:33:727
19 ,0.300 ,DCV mV,17:26:34:491
20 ,0.300 ,DCV mV,17:26:35:256
21 ,99.800 ,DCV mV,17:26:36:020
22 ,200.400 ,DCV mV,17:26:36:785
23 ,200.400 ,DCV mV,17:26:37:549
24 ,200.400 ,DCV mV,17:26:38:313
25 ,200.400 ,DCV mV,17:26:39:062
26 ,299.800 ,DCV mV,17:26:39:827
27 ,299.800 ,DCV mV,17:26:40:591
28 ,299.800 ,DCV mV,17:26:41:355
29 ,299.900 ,DCV mV,17:26:42:120
30 ,400.300 ,DCV mV,17:26:42:884
31 ,400.300 ,DCV mV,17:26:43:649
32 ,400.300 ,DCV mV,17:26:44:413
33 ,400.300 ,DCV mV,17:26:45:162
34 ,499.800 ,DCV mV,17:26:45:926
35 ,499.800 ,DCV mV,17:26:46:691
36 ,499.800 ,DCV mV,17:26:47:455
37 ,499.800 ,DCV mV,17:26:48:219
38 ,499.800 ,DCV mV,17:26:48:984
39 ,600.200 ,DCV mV,17:26:49:748
40 ,600.200 ,DCV mV,17:26:50:513
41 ,600.200 ,DCV mV,17:26:51:261
42 ,600.200 ,DCV mV,17:26:52:026
43 ,0.000 ,DCV V,17:26:52:790
44 ,0.699 ,DCV V,17:26:53:555
45 ,0.699 ,DCV V,17:26:54:319
46 ,0.699 ,DCV V,17:26:55:083
47 ,0.710 ,DCV V,17:26:55:848
48 ,0.800 ,DCV V,17:26:56:612
49 ,0.800 ,DCV V,17:26:57:361
50 ,0.800 ,DCV V,17:26:58:125
51 ,0.800 ,DCV V,17:26:58:890
52 ,0.896 ,DCV V,17:26:59:654
53 ,0.899 ,DCV V,17:27:00:419
54 ,0.899 ,DCV V,17:27:01:183
55 ,0.899 ,DCV V,17:27:01:947
56 ,0.909 ,DCV V,17:27:02:712
57 ,1.000 ,DCV V,17:27:03:461
58 ,1.000 ,DCV V,17:27:04:225
59 ,1.000 ,DCV V,17:27:04:989
60 ,1.005 ,DCV V,17:27:05:754
61 ,1.099 ,DCV V,17:27:06:518
62 ,1.099 ,DCV V,17:27:07:283
63 ,1.099 ,DCV V,17:27:08:047
64 ,1.101 ,DCV V,17:27:08:796
65 ,1.200 ,DCV V,17:27:09:560
66 ,1.200 ,DCV V,17:27:10:325
67 ,1.200 ,DCV V,17:27:11:089
68 ,1.200 ,DCV V,17:27:11:853
69 ,1.200 ,DCV V,17:27:12:618
70 ,1.300 ,DCV V,17:27:13:382
71 ,1.300 ,DCV V,17:27:14:147
72 ,1.300 ,DCV V,17:27:14:911
73 ,1.301 ,DCV V,17:27:15:660
74 ,1.400 ,DCV V,17:27:16:424
75 ,1.400 ,DCV V,17:27:17:189
76 ,1.400 ,DCV V,17:27:17:953
77 ,1.400 ,DCV V,17:27:18:717
78 ,1.500 ,DCV V,17:27:19:482
79 ,1.500 ,DCV V,17:27:20:231
80 ,1.500 ,DCV V,17:27:20:995
81 ,1.500 ,DCV V,17:27:21:759
82 ,1.600 ,DCV V,17:27:22:524
83 ,1.600 ,DCV V,17:27:23:288
84 ,1.600 ,DCV V,17:27:24:053
85 ,1.600 ,DCV V,17:27:24:817
86 ,1.600 ,DCV V,17:27:25:581
87 ,1.700 ,DCV V,17:27:26:330
88 ,1.700 ,DCV V,17:27:27:095
89 ,1.700 ,DCV V,17:27:27:859
90 ,1.700 ,DCV V,17:27:28:623
91 ,1.800 ,DCV V,17:27:29:388
92 ,1.800 ,DCV V,17:27:30:152
93 ,1.800 ,DCV V,17:27:30:901
94 ,1.800 ,DCV V,17:27:31:665
95 ,1.900 ,DCV V,17:27:32:430
96 ,1.900 ,DCV V,17:27:33:194
97 ,1.900 ,DCV V,17:27:33:959
98 ,1.900 ,DCV V,17:27:34:723
99 ,1.900 ,DCV V,17:27:35:487
100 ,1.919 ,DCV V,17:27:36:252
101 ,2.000 ,DCV V,17:27:37:016
102 ,2.000 ,DCV V,17:27:37:765
103 ,2.000 ,DCV V,17:27:38:529
104 ,2.014 ,DCV V,17:27:39:294
105 ,2.100 ,DCV V,17:27:40:058
106 ,2.100 ,DCV V,17:27:40:823
107 ,2.100 ,DCV V,17:27:41:587
108 ,2.119 ,DCV V,17:27:42:336
109 ,2.200 ,DCV V,17:27:43:100
110 ,2.200 ,DCV V,17:27:43:865
111 ,2.200 ,DCV V,17:27:44:629
112 ,2.213 ,DCV V,17:27:45:393
113 ,2.300 ,DCV V,17:27:46:158
114 ,2.300 ,DCV V,17:27:46:922
115 ,2.300 ,DCV V,17:27:47:687
116 ,2.300 ,DCV V,17:27:48:435
117 ,2.307 ,DCV V,17:27:49:200
118 ,2.400 ,DCV V,17:27:49:964
119 ,2.400 ,DCV V,17:27:50:729
120 ,2.400 ,DCV V,17:27:51:493
121 ,2.403 ,DCV V,17:27:52:257
122 ,2.500 ,DCV V,17:27:53:006
123 ,2.500 ,DCV V,17:27:53:771
124 ,2.500 ,DCV V,17:27:54:535
125 ,2.500 ,DCV V,17:27:55:299
126 ,2.601 ,DCV V,17:27:56:064
127 ,2.601 ,DCV V,17:27:56:828
128 ,2.601 ,DCV V,17:27:57:593
129 ,2.603 ,DCV V,17:27:58:341
130 ,2.649 ,DCV V,17:27:59:106
131 ,2.649 ,DCV V,17:27:59:870
132 ,2.697 ,DCV V,17:28:00:635
133 ,2.700 ,DCV V,17:28:01:399
134 ,2.700 ,DCV V,17:28:02:163
135 ,2.744 ,DCV V,17:28:02:928
136 ,2.794 ,DCV V,17:28:03:692
137 ,2.801 ,DCV V,17:28:04:441
138 ,2.801 ,DCV V,17:28:05:205
139 ,2.836 ,DCV V,17:28:05:970
140 ,2.885 ,DCV V,17:28:06:734
141 ,2.900 ,DCV V,17:28:07:499
142 ,2.900 ,DCV V,17:28:08:263
143 ,2.931 ,DCV V,17:28:09:027
144 ,2.981 ,DCV V,17:28:09:776
145 ,3.001 ,DCV V,17:28:10:541
146 ,3.001 ,DCV V,17:28:11:305
147 ,3.001 ,DCV V,17:28:12:069
148 ,3.035 ,DCV V,17:28:12:834
149 ,3.085 ,DCV V,17:28:13:598
150 ,3.100 ,DCV V,17:28:14:363
151 ,3.100 ,DCV V,17:28:15:127
152 ,3.130 ,DCV V,17:28:15:876
153 ,3.180 ,DCV V,17:28:16:640
154 ,3.201 ,DCV V,17:28:17:405
155 ,3.201 ,DCV V,17:28:18:169
156 ,3.222 ,DCV V,17:28:18:933
157 ,3.271 ,DCV V,17:28:19:698
158 ,3.300 ,DCV V,17:28:20:447
159 ,3.300 ,DCV V,17:28:21:211
160 ,3.317 ,DCV V,17:28:21:975
161 ,3.367 ,DCV V,17:28:22:740
162 ,3.401 ,DCV V,17:28:23:504
163 ,3.401 ,DCV V,17:28:24:269
164 ,3.401 ,DCV V,17:28:25:033
165 ,3.409 ,DCV V,17:28:25:797
166 ,3.458 ,DCV V,17:28:26:562
167 ,3.500 ,DCV V,17:28:27:311
168 ,3.500 ,DCV V,17:28:28:075
169 ,3.516 ,DCV V,17:28:28:840
170 ,3.567 ,DCV V,17:28:29:604
171 ,3.601 ,DCV V,17:28:30:368
172 ,3.601 ,DCV V,17:28:31:133
173 ,3.608 ,DCV V,17:28:31:882
174 ,3.658 ,DCV V,17:28:32:646
175 ,3.700 ,DCV V,17:28:33:410
176 ,3.700 ,DCV V,17:28:34:175
177 ,3.705 ,DCV V,17:28:34:939
178 ,3.753 ,DCV V,17:28:35:704
179 ,3.753 ,DCV V,17:28:36:468
180 ,3.799 ,DCV V,17:28:37:232
181 ,3.801 ,DCV V,17:28:37:981
182 ,3.801 ,DCV V,17:28:38:746
183 ,3.845 ,DCV V,17:28:39:510
184 ,3.895 ,DCV V,17:28:40:274
185 ,3.901 ,DCV V,17:28:41:039
186 ,3.901 ,DCV V,17:28:41:803
187 ,3.940 ,DCV V,17:28:42:552
188 ,3.998 ,DCV V,17:28:43:316
189 ,4.001 ,DCV V,17:28:44:081
190 ,4.001 ,DCV V,17:28:44:845
191 ,4.045 ,DCV V,17:28:45:610
192 ,4.095 ,DCV V,17:28:46:374
193 ,4.101 ,DCV V,17:28:47:138
194 ,4.101 ,DCV V,17:28:47:903
195 ,4.101 ,DCV V,17:28:48:652
196 ,4.139 ,DCV V,17:28:49:416
197 ,4.189 ,DCV V,17:28:50:180
198 ,4.201 ,DCV V,17:28:50:945
199 ,4.201 ,DCV V,17:28:51:709
200 ,4.232 ,DCV V,17:28:52:474
201 ,4.282 ,DCV V,17:28:53:238
202 ,4.301 ,DCV V,17:28:53:987
203 ,4.301 ,DCV V,17:28:54:751
204 ,4.326 ,DCV V,17:28:55:516
205 ,4.376 ,DCV V,17:28:56:280
206 ,4.401 ,DCV V,17:28:57:044
207 ,4.401 ,DCV V,17:28:57:809
208 ,4.432 ,DCV V,17:28:58:573
209 ,4.482 ,DCV V,17:28:59:322
210 ,4.501 ,DCV V,17:29:00:086
211 ,4.501 ,DCV V,17:29:00:851
212 ,4.501 ,DCV V,17:29:01:615
213 ,4.525 ,DCV V,17:29:02:380
214 ,4.575 ,DCV V,17:29:03:144
215 ,4.600 ,DCV V,17:29:03:908
216 ,4.600 ,DCV V,17:29:04:673
217 ,4.619 ,DCV V,17:29:05:422
218 ,4.669 ,DCV V,17:29:06:186
219 ,4.701 ,DCV V,17:29:06:950
220 ,4.701 ,DCV V,17:29:07:715
221 ,4.711 ,DCV V,17:29:08:479
222 ,4.761 ,DCV V,17:29:09:244
223 ,4.800 ,DCV V,17:29:10:008
224 ,4.800 ,DCV V,17:29:10:757
225 ,4.806 ,DCV V,17:29:11:521
226 ,4.856 ,DCV V,17:29:12:286
227 ,4.856 ,DCV V,17:29:13:050
228 ,4.900 ,DCV V,17:29:13:814
229 ,4.901 ,DCV V,17:29:14:579
230 ,4.910 ,DCV V,17:29:15:343
231 ,4.960 ,DCV V,17:29:16:108
232 ,5.000 ,DCV V,17:29:16:856
233 ,5.000 ,DCV V,17:29:17:621
234 ,5.006 ,DCV V,17:29:18:385
235 ,5.056 ,DCV V,17:29:19:150
236 ,5.100 ,DCV V,17:29:19:914
237 ,5.101 ,DCV V,17:29:20:663
238 ,5.102 ,DCV V,17:29:21:427
239 ,5.147 ,DCV V,17:29:22:192
240 ,5.196 ,DCV V,17:29:22:956
241 ,5.201 ,DCV V,17:29:23:720
242 ,5.201 ,DCV V,17:29:24:485
243 ,5.201 ,DCV V,17:29:25:249
244 ,5.243 ,DCV V,17:29:26:014
245 ,5.293 ,DCV V,17:29:26:778
246 ,5.300 ,DCV V,17:29:27:527
247 ,5.301 ,DCV V,17:29:28:291
248 ,5.346 ,DCV V,17:29:29:056
249 ,5.396 ,DCV V,17:29:29:820
250 ,5.401 ,DCV V,17:29:30:584
251 ,5.401 ,DCV V,17:29:31:349
252 ,5.442 ,DCV V,17:29:32:098
253 ,5.492 ,DCV V,17:29:32:862
254 ,5.501 ,DCV V,17:29:33:626
255 ,5.501 ,DCV V,17:29:34:391
256 ,5.533 ,DCV V,17:29:35:155
257 ,5.583 ,DCV V,17:29:35:920
258 ,5.601 ,DCV V,17:29:36:684
259 ,5.601 ,DCV V,17:29:37:448
260 ,5.601 ,DCV V,17:29:38:197
261 ,5.629 ,DCV V,17:29:38:977
262 ,5.679 ,DCV V,17:29:39:726
263 ,5.700 ,DCV V,17:29:40:490
264 ,5.700 ,DCV V,17:29:41:255
265 ,5.720 ,DCV V,17:29:42:019
266 ,5.770 ,DCV V,17:29:42:768
267 ,5.801 ,DCV V,17:29:43:532
268 ,5.801 ,DCV V,17:29:44:297
269 ,5.828 ,DCV V,17:29:45:061
270 ,5.878 ,DCV V,17:29:45:826
271 ,5.900 ,DCV V,17:29:46:590
272 ,5.900 ,DCV V,17:29:47:354
273 ,5.919 ,DCV V,17:29:48:119
274 ,5.970 ,DCV V,17:29:48:868
275 ,5.970 ,DCV V,17:29:49:632
276 ,6.001 ,DCV V,17:29:50:396
277 ,6.001 ,DCV V,17:29:51:161
278 ,6.015 ,DCV V,17:29:51:925
279 ,6.064 ,DCV V,17:29:52:690
280 ,6.100 ,DCV V,17:29:53:454
281 ,6.100 ,DCV V,17:29:54:203
282 ,6.107 ,DCV V,17:29:54:967
283 ,6.157 ,DCV V,17:29:55:732
284 ,0.000 ,DCV V,17:29:56:496
285 ,6.200 ,DCV V,17:29:57:260
286 ,6.210 ,DCV V,17:29:58:025
287 ,6.260 ,DCV V,17:29:58:789
288 ,6.300 ,DCV V,17:29:59:554
289 ,6.300 ,DCV V,17:30:00:302
290 ,6.300 ,DCV V,17:30:01:067
291 ,6.300 ,DCV V,17:30:01:831
292 ,6.400 ,DCV V,17:30:02:596
293 ,6.400 ,DCV V,17:30:03:360
294 ,6.400 ,DCV V,17:30:04:124
295 ,6.400 ,DCV V,17:30:04:889
296 ,6.440 ,DCV V,17:30:05:638
297 ,6.500 ,DCV V,17:30:06:402
298 ,6.500 ,DCV V,17:30:07:166
299 ,6.500 ,DCV V,17:30:07:931
300 ,6.600 ,DCV V,17:30:08:695
301 ,6.600 ,DCV V,17:30:09:460
302 ,6.600 ,DCV V,17:30:10:224
303 ,6.600 ,DCV V,17:30:10:973
304 ,6.640 ,DCV V,17:30:11:737
305 ,6.700 ,DCV V,17:30:12:502
306 ,6.700 ,DCV V,17:30:13:266
307 ,6.700 ,DCV V,17:30:14:030
308 ,6.700 ,DCV V,17:30:14:795
309 ,6.800 ,DCV V,17:30:15:544
310 ,6.800 ,DCV V,17:30:16:308
311 ,6.800 ,DCV V,17:30:17:072
312 ,6.800 ,DCV V,17:30:17:837
313 ,6.830 ,DCV V,17:30:18:601
314 ,6.900 ,DCV V,17:30:19:366
315 ,6.900 ,DCV V,17:30:20:130
316 ,6.900 ,DCV V,17:30:20:879
317 ,6.920 ,DCV V,17:30:21:643
318 ,7.000 ,DCV V,17:30:22:611
319 ,7.000 ,DCV V,17:30:23:188
320 ,7.000 ,DCV V,17:30:23:937
321 ,7.020 ,DCV V,17:30:24:717
322 ,7.070 ,DCV V,17:30:25:465
323 ,7.070 ,DCV V,17:30:26:214
324 ,7.100 ,DCV V,17:30:26:979
325 ,7.100 ,DCV V,17:30:27:743
326 ,7.120 ,DCV V,17:30:28:507
327 ,7.190 ,DCV V,17:30:29:272
328 ,7.200 ,DCV V,17:30:30:036
329 ,7.200 ,DCV V,17:30:30:785
330 ,7.220 ,DCV V,17:30:31:549
331 ,7.270 ,DCV V,17:30:32:080
332 ,7.270 ,DCV V,17:30:32:610
333 ,7.300 ,DCV V,17:30:33:141
334 ,7.300 ,DCV V,17:30:33:671
335 ,7.300 ,DCV V,17:30:34:201
336 ,7.310 ,DCV V,17:30:34:732
337 ,7.310 ,DCV V,17:30:35:262
338 ,7.400 ,DCV V,17:30:35:793
339 ,7.400 ,DCV V,17:30:36:323
340 ,7.400 ,DCV V,17:30:36:853
341 ,7.400 ,DCV V,17:30:37:384
342 ,7.400 ,DCV V,17:30:37:914
343 ,7.400 ,DCV V,17:30:38:445
344 ,7.450 ,DCV V,17:30:38:975
345 ,7.500 ,DCV V,17:30:39:505
346 ,7.500 ,DCV V,17:30:40:036
347 ,7.500 ,DCV V,17:30:40:566
348 ,7.500 ,DCV V,17:30:41:097
349 ,7.500 ,DCV V,17:30:41:627
350 ,7.600 ,DCV V,17:30:42:157
351 ,7.600 ,DCV V,17:30:42:735
352 ,7.600 ,DCV V,17:30:43:499
353 ,7.600 ,DCV V,17:30:44:263
354 ,7.650 ,DCV V,17:30:45:012
355 ,7.700 ,DCV V,17:30:45:777
356 ,7.700 ,DCV V,17:30:46:541
357 ,7.700 ,DCV V,17:30:47:305
358 ,7.700 ,DCV V,17:30:48:070
